Torna al catalogo

YAOGAN-41

AttivoMilitareGEO
NORAD 58582·PAYLOAD·🇨🇳 China

Lanciato Dec 15, 2023 da Wenchang Space Launch Site

Loading…

TLE

AggiornatoSource: Space-Track

Epoca: Sep 14, 2026, 14:23 UTC

1 58582U 23197A   26257.59954111 -.00000371  00000-0  00000-0 0  9999
2 58582   2.9741 314.6804 0013594 211.3207 166.5713  1.00274810 10224

Traccia YAOGAN-41 in tempo reale con AllMySat

Download on the App Store